sat.trackr.live / text

‹ back to catalog

STARLINK-32361

NORAD 61933 · 2024-207X

PAYLOAD ACTIVE UNKNOWN

§ Identity

Operator
Country
US
Launch date
2024-11-11
Launch site
AFETR
Launch vehicle
Mass (kg)
RCS (m²)

Purposes: comms

External: N2YO · Heavens-Above · Gunter

§ Orbital elements

Epoch: 2026-09-21T22:48:48.218976Z

Period
94.27 min
Inclination
42.9984°
Eccentricity
0.0000636
Mean motion
15.27587368 rev/d
Perigee alt
482.6 km
Apogee alt
483.5 km
Semi-major
6,861.2 km
B*
4.0999e-4
RAAN
253.6867°
Arg perigee
275.7119°
Mean anomaly
84.3660°
Rev number
10,473

§ Raw data

STARLINK-323611 61933U 24207X   26264.95055809  .00011040  00000+0  40999-3 0  99972 61933  42.9984 253.6867 0000636 275.7119  84.3660 15.27587368104738

JSON: /api/v1/satellites/61933 · /tle

For live sub-satellite position, see the globe view (requires WebGL).

§ Visibility from observer

Set your observer location to see the next 7 days of passes ≥ 10°. The values pass through the URL so the page stays shareable.

No JS? Fill the form by hand. The geolocation button needs JavaScript.